STARLINK-4029, 52685

Orbit data source: Space-Track

STARLINK-4029, 52685 is a payload satellite owned by SpaceX/Seattle (US) in LEO that was launched on Wed, 18 May 2022 UTC via an FALCON 9 launch vehicle from the Air Force Eastern Test Range (AFETR). Payload-class satellites include a variety of spacecraft equipped with specific instruments for various scientific and technological missions. These include communications satellites like Starlink; space stations such as the ISS; scientific satellites like the Hubble; Earth observation satellites from companies like Planet Labs, Umbra, and HawkEye 360; GPS; miniature CubeSats for education and research; and military/defense satellites.

Loading next visibility...
Identifier
52685, 2022-053AF
Orbit
LEO
Country
Flag of USUS
Related business
Manufacturer
SpaceX/Seattle
Mission
Operational Commercial Communications
Bus & Motor
STARLINK, Unknown motor
Mass
297 kg wet, ~275 kg dry
Launch date (UTC)
2022-05-18 (4 years ago)
Launch vehicle
FALCON 9
Launch site
Air Force Eastern Test Range (AFETR)
Object type
Payload
Rocket body
Debris
Shape & HBR
Box + 1 Pan, 10.1 m
Radar Cross Section
13.562 m², Large (>1 m²)

Expand to show TLE details & history
Last TLE update: 2 days ago

TLE from 2 days ago
0 STARLINK-4029
1 52685U 22053AF  26171.33481366  .00000244  00000-0  33429-4 0  9994
2 52685  53.1611  43.2149 0001440  93.1696 266.9460 15.08837089226610
Epoch: 2026-06-20T08:02Z
TLE epoch observation values (Epoch: 2026-06-20T08:02:07.900Z)
Latitude
-0.00003°
Longitude
14.13104°
Altitude
540.697 km
Speed
7.593 km/s
True Right ascension
02h 52m 51s
True Declination
0° 00' 00"
Sunlit
Object was in daylight at epoch
Visualization orbit readout
Latitude
Unknown
Longitude
Unknown
Altitude
Unknown
Speed
Unknown
Apparent Right ascension
Unknown
Apparent Declination
Unknown
Sunlit
N/A
Visualization observer readout
Local Sidereal Time
21:26:32
Azimuth
Unknown
Elevation
Unknown
Doppler factor
Unknown
Orbital elements
Apogee altitude
541.002 km
Perigee altitude
539.01 km
Semi-major axis
6,918.143 km
Eccentricity
0.00014
Inclination
53.1611°
RAAN
43.2149°
Arg. of periapsis
93.1696°
True anomaly
266.92952°
Mean anomaly
266.946°
Eccentric anomaly
266.93776°
Mean motion
3.77189 °/min
Orbital period
95.44 mins
BSTAR
0.000033429
Loading maneuver chart data...
Computing Atmospheric mass density...
Loading historical data...
Loading historical data...
Loading historical data...
Loading historical data...
Loading historical data...
Loading historical data...
Loading historical data...

Documentation

Showing up to 5 results
|